GFSGL_prec_cloud_057.txt.gz
Cloud_Cover
13 100 95 100 100 100 100 100 90 100 98 98 100 100 66 100 100 98 100 100 98 56 41 30 33 84 23 14 9 20 94 100 100 100 100 100 100 100 90 100 100 100 100
5 30 94 100 100 100 96 85 49 95 68 100 71 44 100 100 100 97 82 15 99 84 87 38 98 15 5 11 20 42 32 12 90 100 100 100 100 100 100 99 100 100 100
4 4 40 26 100 100 100 100 89 100 88 100 99 68 98 63 64 64 23 5 5 37 89 30 9 7 14 20 30 20 10 27 100 100 100 100 100 100 100 100 100 100 96
0 4 5 79 88 100 92 100 10 38 82 96 77 35 98 92 5 46 11 13 82 99 58 10 4 10 19 9 11 11 4 18 36 100 99 100 100 100 100 100 100 100 57
0 13 98 100 100 98 100 95 38 44 100 21 16 28 29 82 15 100 100 100 100 100 100 64 15 5 7 5 7 3 4 47 48 99 100 92 96 88 99 84 86 24 44
0 9 100 100 100 100 100 87 100 44 28 75 100 93 90 92 14 62 5 93 100 100 92 94 87 44 90 19 2 0 5 34 36 99 99 82 71 63 93 10 30 58 71
0 3 100 100 100 100 100 100 100 100 92 100 77 9 63 27 66 92 6 40 90 87 5 8 16 5 5 5 4 40 33 46 14 8 88 45 51 54 35 97 83 47 42
5 0 41 100 100 100 100 100 100 100 100 100 100 100 26 5 6 5 5 5 5 5 5 5 3 2 3 5 5 5 5 5 17 12 13 11 11 56 5 30 7 7 2
3 0 4 6 60 100 100 100 100 100 100 100 100 100 100 84 50 6 8 5 5 5 5 5 5 5 5 5 5 5 9 5 5 5 5 10 9 5 5 36 81 96 85
0 0 0 4 10 100 100 100 100 100 100 100 100 100 100 93 90 92 59 61 63 19 26 33 6 5 4 0 4 5 66 67 40 5 14 98 95 100 100 94 31 11 6
0 0 7 0 5 90 100 100 100 100 100 100 100 100 100 100 100 100 91 70 29 5 17 16 13 5 5 5 5 5 35 88 80 51 6 49 10 7 5 5 5 4 0
46 1 4 0 5 17 100 100 100 100 100 100 100 100 100 99 100 100 100 100 96 18 56 44 48 72 79 81 50 100 100 90 6 17 5 6 5 38 8 5 12 15 0
71 5 6 35 22 30 90 100 100 100 100 100 100 100 100 100 100 99 100 100 100 100 96 99 100 100 27 54 96 100 85 96 100 50 8 4 27 5 5 5 5 5 1
63 60 100 100 89 100 100 100 100 100 100 100 100 100 100 100 100 100 100 100 100 100 100 100 100 58 98 93 97 38 65 91 95 80 56 33 88 6 5 5 5 5 5
33 29 93 73 86 100 99 100 100 100 100 100 100 100 100 100 100 100 100 98 100 96 100 100 100 92 38 5 7 57 100 81 100 72 87 18 5 4 5 0 1 4 2
100 100 100 100 99 58 100 100 100 100 100 100 100 100 100 100 100 100 100 100 100 96 100 91 99 34 66 96 100 100 100 93 97 43 6 3 0 0 5 2 1 0 3
98 100 100 100 100 100 100 100 98 92 100 100 100 100 100 100 100 100 100 100 100 100 100 100 100 100 100 100 100 100 79 33 5 5 5 5 5 5 5 5 5 5 5
45 92 100 100 100 100 100 100 100 100 100 100 100 100 100 100 100 100 100 100 100 100 100 100 100 100 100 86 100 100 96 21 21 28 58 28 5 5 8 5 4 5 5
5 8 100 100 85 99 100 100 100 100 100 100 100 100 100 100 100 100 100 100 100 100 100 100 100 100 99 81 99 45 59 9 5 9 22 5 10 5 0 0 3 96 70
5 11 100 100 100 100 100 100 74 98 100 100 100 100 100 100 100 100 100 90 20 75 40 73 80 76 67 96 86 5 5 5 5 5 3 1 4 42 40 0 0 0 0
84 65 43 93 100 100 100 100 100 100 100 100 100 100 100 100 100 100 100 96 44 7 15 20 49 21 9 75 7 1 1 2 0 0 6 60 68 75 100 15 6 3 0
88 33 47 99 96 88 88 20 14 82 100 100 100 100 100 100 100 100 72 5 5 5 5 5 6 7 21 22 8 5 5 5 5 5 32 58 5 84 49 22 18 88 68
100 100 84 77 16 70 100 100 100 74 51 69 100 100 100 100 100 100 91 5 16 5 5 5 5 5 57 56 5 12 5 11 33 6 72 85 96 7 5 46 55 33 34
100 100 100 100 100 100 100 99 95 86 99 100 43 62 100 100 100 89 94 93 85 99 83 47 100 84 72 99 46 92 5 43 55 89 100 98 66 7 4 0 0 5 7
100 97 99 100 100 100 100 100 100 100 88 74 100 100 100 100 100 100 100 100 100 100 100 100 100 100 100 24 80 100 100 100 100 100 100 98 54 6 5 5 5 9 9
41 62 82 86 100 98 100 100 99 99 100 100 100 100 100 100 100 100 100 100 98 99 94 100 100 100 100 100 100 100 100 100 100 100 99 88 100 100 100 98 19 31 8

GFSGL_prec_cloud_060.txt.gz
Cloud_Cover
100 44 77 100 97 100 100 100 100 100 100 100 100 100 100 100 97 100 100 100 100 100 54 80 38 58 51 77 52 20 100 86 100 100 100 100 100 100 95 100 100 100 100
59 8 12 60 100 100 100 100 100 100 100 100 100 100 100 100 87 91 98 59 99 100 100 52 31 66 84 44 44 26 23 11 93 100 100 100 100 100 100 100 89 90 100
96 68 15 5 69 72 89 100 100 99 94 96 78 100 100 94 66 86 100 100 100 93 90 70 100 89 32 29 28 42 45 76 100 100 100 100 100 100 100 100 98 100 100
99 92 6 5 75 80 21 100 100 98 98 41 93 99 100 100 98 29 100 100 76 38 87 86 86 91 74 53 32 32 80 100 100 100 100 100 100 100 100 100 100 100 85
92 95 43 7 2 28 100 86 100 99 29 86 72 40 55 68 54 86 83 97 16 76 100 100 100 100 100 42 62 47 31 98 100 100 100 100 100 100 100 99 100 100 73
100 100 12 5 2 3 98 98 99 100 96 57 79 35 30 54 69 100 100 89 93 100 100 100 100 100 96 90 64 45 28 95 100 100 99 94 91 100 100 100 79 96 45
21 64 93 6 5 2 90 96 67 94 98 100 100 98 68 91 100 100 100 56 90 100 86 97 100 100 77 75 23 58 12 14 5 15 50 12 80 89 70 90 81 22 44
5 4 5 5 2 0 75 100 95 43 100 100 100 100 60 58 81 60 93 48 54 36 6 6 5 5 5 5 3 5 7 27 6 2 5 5 14 25 6 68 70 38 52
1 2 0 0 0 0 6 100 100 100 100 86 74 100 100 93 66 61 52 5 5 65 33 5 7 27 15 5 5 5 5 5 5 5 5 5 6 5 52 5 5 45 55
0 0 0 0 0 5 0 10 100 100 100 100 100 90 98 100 98 100 97 100 86 66 28 76 11 5 5 17 12 5 5 5 4 5 5 5 7 65 5 5 5 24 64
0 2 0 0 0 0 0 1 70 100 100 100 100 100 100 91 91 99 100 99 85 100 100 99 63 11 13 6 22 36 71 28 9 81 5 5 5 5 7 27 5 14 36
4 83 73 32 12 8 24 86 8 100 100 100 100 100 100 100 89 100 100 100 96 100 100 100 98 94 63 77 99 100 100 100 100 15 5 10 5 7 5 5 4 5 5
100 100 95 8 20 100 82 100 42 40 100 100 100 100 100 100 100 100 100 100 94 83 100 100 100 100 100 100 93 93 87 83 77 81 28 64 84 63 5 28 97 100 96
55 90 89 43 70 95 96 100 100 98 97 100 100 100 100 100 100 100 100 100 100 100 25 42 99 99 100 100 100 94 100 100 98 38 73 86 89 41 100 100 100 24 12
70 34 86 100 100 100 100 100 100 100 100 100 100 100 100 100 100 100 100 100 100 100 89 67 92 100 100 100 100 100 100 99 84 69 25 96 100 100 99 84 42 74 5
2 59 16 81 100 100 95 98 99 100 100 100 100 100 100 100 100 100 100 100 100 100 100 100 100 100 100 100 100 100 100 100 99 85 100 100 100 45 55 81 13 26 5
4 77 18 51 100 100 100 100 97 62 100 100 100 100 100 100 100 100 100 100 100 100 100 100 100 100 100 100 100 100 100 100 100 99 98 65 100 50 87 45 5 18 3
16 5 5 21 81 100 100 100 100 99 100 99 98 100 100 100 100 100 100 100 100 100 100 100 100 100 100 100 100 100 100 99 93 72 44 19 42 56 26 41 7 4 1
5 5 4 4 5 70 58 50 100 100 72 97 99 100 100 100 100 100 100 90 97 100 100 100 100 100 100 100 100 71 74 86 45 15 11 5 9 5 5 5 5 5 4
5 5 0 0 0 5 100 95 100 100 78 42 96 99 100 100 100 100 100 100 99 100 100 100 100 100 100 100 100 92 67 23 5 7 5 5 5 36 6 50 69 5 2
0 5 5 0 2 3 45 100 100 100 99 47 99 99 100 100 100 94 100 100 100 100 100 93 98 100 91 26 8 27 32 6 5 5 5 42 9 11 5 36 98 33 7
4 5 5 5 5 41 75 57 40 70 93 91 100 99 82 37 29 38 62 81 100 100 98 100 98 100 100 100 100 100 100 100 80 16 5 5 42 85 23 5 49 100 100
0 2 0 5 36 54 31 35 11 80 63 76 81 100 100 78 83 90 68 67 94 100 81 54 64 84 100 98 100 88 58 76 69 56 67 91 85 76 95 98 93 84 51
5 22 74 86 100 94 44 45 14 32 68 100 98 99 93 98 82 87 98 100 100 100 100 100 100 100 100 100 96 100 100 99 99 99 92 68 59 100 100 100 100 100 100
3 6 5 6 64 54 90 89 44 100 37 19 88 99 96 81 100 100 100 100 100 100 100 91 85 100 99 100 100 88 100 100 99 100 100 98 99 100 100 100 100 95 100
11 27 9 8 5 4 1 0 0 13 59 95 11 35 27 45 5 18 46 76 100 100 100 100 88 100 100 100 100 98 100 100 99 100 100 100 94 99 100 100 91 100 95

GFSGL_prec_cloud_063.txt.gz
Cloud_Cover
10 5 9 5 5 8 75 93 98 93 93 100 99 81 77 95 100 100 100 100 100 99 100 100 67 48 61 42 36 52 98 100 100 100 100 100 100 100 100 100 100 100 100
96 64 19 5 34 25 97 100 100 96 100 100 93 80 100 100 100 100 100 97 100 94 100 65 99 89 100 87 88 63 100 100 100 100 100 100 100 100 100 100 100 100 100
91 5 5 13 30 5 50 100 100 100 100 100 92 100 100 53 92 96 76 100 100 92 78 100 100 82 94 99 92 70 81 79 100 100 100 100 100 100 100 100 99 100 100
100 19 6 0 0 2 5 91 100 100 100 100 100 100 100 93 98 96 100 88 98 88 77 91 100 65 81 98 100 100 100 100 100 100 100 100 100 100 100 100 82 100 97
69 100 4 7 12 0 0 5 100 77 97 100 80 88 100 100 100 100 100 100 100 100 100 100 85 83 5 100 100 100 100 100 100 100 100 100 100 100 100 100 100 100 100
97 96 5 5 76 5 0 0 5 100 100 93 69 98 100 52 85 87 86 99 47 88 78 49 99 100 100 100 100 100 100 100 100 100 100 100 100 100 100 100 100 88 90
100 77 8 4 94 48 2 0 1 36 100 100 33 99 100 70 81 62 5 6 22 96 89 65 87 99 99 100 100 100 100 100 100 77 40 41 96 87 100 100 100 71 71
64 100 95 1 6 71 18 0 1 5 100 84 100 96 100 100 84 99 81 98 15 17 71 5 21 54 76 89 73 85 81 16 48 8 5 5 4 3 28 82 99 86 91
29 71 100 36 1 5 5 3 0 0 11 100 97 100 90 100 99 100 100 96 89 46 63 61 53 58 92 71 100 51 48 47 13 6 5 5 5 5 5 8 5 23 5
5 4 0 0 0 0 0 0 0 0 5 32 95 100 96 86 97 75 64 78 100 100 100 100 97 62 66 99 88 87 86 12 8 14 14 71 100 89 41 11 21 5 6
4 4 22 5 1 6 1 50 33 9 14 30 98 100 98 53 86 77 74 100 100 100 100 100 82 98 100 100 100 100 100 100 67 30 70 100 97 96 67 24 13 12 10
25 66 100 71 75 28 100 100 100 94 93 88 62 88 100 100 100 86 68 88 99 100 76 91 98 100 100 100 100 100 100 93 75 89 90 39 19 56 58 43 8 8 24
49 99 100 99 100 100 75 99 99 94 100 100 99 77 62 99 100 100 98 88 51 100 100 100 100 100 100 86 100 100 91 94 82 49 8 16 84 97 100 99 83 74 55
78 100 94 98 83 96 100 100 100 90 81 87 97 97 85 100 100 100 100 100 56 100 100 100 100 100 100 94 95 100 94 100 100 97 100 100 100 100 100 100 99 100 100
100 92 94 91 83 87 77 100 100 100 100 100 99 88 100 87 93 100 100 100 100 100 100 100 100 100 100 100 100 100 100 85 92 100 100 100 100 99 100 100 100 100 100
100 51 83 35 67 100 100 100 99 100 100 100 100 100 100 100 100 100 100 100 100 100 100 100 94 100 100 100 100 100 100 100 100 100 100 100 100 100 93 100 100 86 34
93 66 15 32 16 88 96 100 100 77 100 100 100 100 100 100 100 100 100 100 100 100 100 100 100 100 100 100 100 100 100 100 100 100 100 100 100 100 97 92 70 54 63
96 98 84 6 18 6 77 96 100 59 59 48 76 100 100 100 100 100 100 100 100 100 100 100 100 100 100 100 100 100 100 100 100 100 96 91 86 96 100 89 43 11 5
100 76 42 52 6 12 5 66 50 52 99 80 27 67 100 100 100 100 100 100 100 100 100 100 100 100 100 100 100 100 84 100 72 87 73 96 92 85 99 91 100 68 12
78 100 38 5 6 5 22 24 26 83 88 99 37 54 84 88 100 100 100 100 100 100 97 100 100 88 91 99 100 100 100 99 100 100 100 100 100 100 100 86 66 41 27
100 46 58 5 14 29 20 24 41 63 22 25 23 15 89 44 100 100 100 100 100 100 85 97 100 100 100 95 80 99 84 95 100 94 29 73 96 100 95 100 98 58 88
98 100 63 39 47 10 15 16 37 16 61 98 91 55 27 6 13 7 20 64 80 92 100 95 100 98 82 66 97 100 100 100 100 88 97 100 100 100 96 99 99 92 83
100 100 100 100 55 5 12 39 25 100 10 2 7 63 63 30 90 100 86 66 35 89 80 86 100 100 88 64 99 100 100 100 100 92 99 100 69 100 79 97 94 90 100
80 100 100 13 27 48 41 16 70 43 33 8 28 23 26 16 15 11 50 9 23 36 71 97 100 100 100 100 94 99 99 96 100 93 88 100 100 100 100 98 100 100 100
51 85 87 58 41 56 97 90 5 6 5 52 58 17 62 98 98 41 5 25 18 16 12 11 79 69 86 72 100 100 100 100 100 100 100 100 100 100 100 100 100 100 100
100 100 100 73 57 49 66 86 86 22 61 100 100 100 95 98 71 66 63 30 33 32 100 99 76 48 99 100 100 100 100 100 100 100 100 100 100 100 100 100 100 100 99

GFSGL_prec_cloud_069.txt.gz
Cloud_Cover
100 38 85 87 65 5 13 5 2 91 82 41 100 100 42 99 100 100 100 92 92 89 100 100 100 86 100 100 100 100 99 100 100 100 100 100 100 100 100 100 100 100 100
96 76 100 87 45 5 0 4 4 1 56 100 98 100 100 100 100 100 100 100 100 98 92 100 100 100 100 100 100 100 100 100 100 100 100 100 100 100 100 100 100 100 100
86 100 95 100 91 4 5 0 0 4 5 91 100 100 100 98 100 100 100 100 100 100 100 100 100 100 100 100 99 96 100 100 100 100 100 100 100 100 100 100 100 100 100
100 100 100 100 5 3 2 0 0 0 4 5 23 93 100 100 100 100 100 100 100 100 100 100 100 100 100 100 98 92 100 99 91 100 100 100 100 100 100 100 100 100 98
100 100 100 9 16 3 0 0 0 0 0 5 5 46 99 91 5 43 100 100 100 100 100 100 100 100 100 100 87 81 98 83 97 100 100 100 100 100 100 100 100 95 83
100 100 100 100 100 44 16 3 0 0 0 5 16 52 64 100 100 66 27 59 94 100 100 100 100 100 100 100 100 100 100 100 100 100 100 100 100 100 100 100 100 100 77
100 100 100 100 100 100 98 2 0 0 0 0 5 31 97 82 100 100 100 100 41 59 81 92 100 100 100 93 75 98 95 100 100 100 100 100 100 100 100 100 100 100 100
100 100 100 100 99 100 89 4 4 0 0 0 0 2 84 100 100 100 100 100 100 91 100 40 57 59 58 13 23 57 93 100 90 97 98 98 100 100 100 100 100 98 100
100 100 100 100 100 90 42 5 0 4 9 4 2 0 1 8 81 53 94 91 100 100 100 99 80 51 96 100 100 100 100 100 100 100 87 94 100 100 100 98 99 87 100
100 100 100 100 100 100 100 60 9 5 5 5 5 2 4 1 10 51 42 99 100 100 97 100 100 100 100 100 100 100 100 100 100 100 100 100 100 100 100 100 100 100 100
100 100 100 100 100 100 100 100 27 8 15 28 15 6 5 3 2 21 35 43 44 87 32 87 100 100 78 100 100 100 100 100 100 100 100 100 100 100 100 100 100 100 100
100 100 100 100 100 100 100 100 100 78 64 56 60 41 20 27 12 14 36 80 20 54 56 62 86 64 84 55 99 100 100 100 100 100 100 100 100 100 100 100 100 100 100
100 100 100 100 100 100 100 95 100 92 77 74 66 40 7 84 56 21 78 66 70 57 66 100 92 63 98 93 53 62 76 73 100 100 100 100 100 100 100 100 100 100 100
100 100 100 100 100 100 100 100 100 96 98 80 56 48 85 100 76 97 81 32 73 92 95 100 100 100 94 74 56 69 21 7 10 59 90 72 83 100 100 100 100 100 100
100 100 100 100 100 100 100 100 100 96 100 100 98 99 100 100 97 74 96 100 100 100 80 96 100 100 98 99 73 100 70 98 79 74 98 99 100 99 100 100 100 100 100
100 100 100 100 100 100 100 100 100 100 100 100 100 98 100 100 100 100 100 100 100 100 100 100 100 100 100 99 98 100 99 100 100 93 86 83 90 92 96 100 100 100 100
100 100 100 100 100 100 100 100 100 100 100 100 100 100 100 98 100 100 100 100 100 100 100 100 100 82 100 100 97 97 100 100 100 90 100 100 100 100 100 100 100 100 100
100 100 100 100 100 100 100 100 100 77 13 6 74 76 97 100 100 100 100 100 100 100 100 100 96 99 100 100 100 100 100 100 100 100 100 100 100 100 100 100 100 100 96
100 100 100 100 100 100 100 100 46 52 14 30 6 50 90 52 100 100 100 97 100 100 100 100 100 100 100 100 100 100 100 100 100 100 100 100 100 100 100 100 100 100 100
100 100 100 100 100 100 100 98 88 10 33 35 30 18 1 23 3 3 9 42 79 100 100 100 100 100 100 100 100 100 100 100 100 100 100 100 100 100 100 100 100 100 100
100 82 100 100 100 100 100 100 99 100 54 38 15 32 5 10 44 61 63 63 66 87 100 100 100 100 100 100 99 100 100 100 100 100 100 100 100 100 100 100 100 100 100
100 100 100 100 100 100 100 34 87 100 99 56 6 4 100 4 20 52 71 90 43 56 42 69 97 98 100 100 96 100 100 100 100 100 100 100 100 100 97 100 86 91 58
100 100 100 100 100 100 100 54 54 44 24 42 5 32 93 98 100 99 100 99 94 85 64 88 76 76 100 100 100 100 100 100 100 100 100 100 100 100 100 100 100 100 100
97 100 100 100 100 100 100 99 100 100 96 95 97 100 84 94 42 52 100 100 86 99 100 100 99 100 100 100 100 100 100 100 100 100 100 100 100 100 100 100 100 100 100
100 100 100 84 100 100 100 100 100 100 100 100 100 99 90 100 100 100 100 100 100 100 100 100 100 100 100 100 100 100 100 100 100 58 81 99 100 100 100 81 100 100 100
100 100 100 100 100 98 99 100 94 90 100 100 97 100 100 100 95 99 100 100 100 100 100 100 100 100 100 100 100 100 100 91 100 100 100 100 100 99 100 100 100 100 100

GFSGL_prec_cloud_072.txt.gz
Cloud_Cover
100 100 95 32 5 18 79 56 67 64 82 78 84 62 28 54 64 97 81 81 100 100 100 100 100 100 100 100 100 100 100 100 100 100 100 100 100 100 100 100 97 100 100
100 100 100 95 61 5 44 71 81 86 87 18 28 87 100 64 16 33 62 98 90 100 100 100 100 100 100 100 100 100 100 100 100 100 100 100 100 100 100 96 99 96 93
100 100 100 100 82 45 40 50 94 35 90 19 1 94 100 100 100 98 93 76 94 98 100 100 99 98 82 100 100 100 100 100 100 100 100 100 100 100 100 100 92 100 97
100 100 100 100 100 100 100 100 37 20 19 10 12 2 22 97 100 99 100 100 100 100 100 100 100 100 100 100 100 100 100 100 100 97 100 100 100 100 100 99 100 100 100
100 100 100 100 98 100 87 97 15 19 38 39 27 38 12 5 25 77 100 95 100 100 100 100 100 84 100 100 100 100 100 100 100 100 100 100 100 100 100 95 100 100 100
100 100 100 100 80 100 27 11 7 22 56 17 3 10 42 27 74 28 5 60 94 100 100 100 100 100 100 100 100 100 100 100 100 100 100 100 100 100 100 100 88 85 100
100 100 100 100 74 64 100 100 9 12 40 12 5 2 10 12 5 43 96 47 85 88 100 100 100 100 100 100 100 100 100 100 85 95 88 78 100 99 95 100 94 100 94
100 100 100 96 98 100 100 100 10 18 46 33 3 0 0 0 4 29 76 84 62 92 100 100 100 100 100 98 80 28 93 85 89 100 76 82 97 92 100 100 100 100 85
100 100 100 100 100 100 100 72 2 82 67 64 28 21 6 9 0 5 42 16 92 97 74 100 100 100 98 100 75 29 55 98 96 100 100 100 100 100 100 100 100 100 100
100 100 100 100 100 100 85 52 10 81 35 41 35 38 9 9 12 2 49 6 18 85 98 100 100 100 100 100 100 100 100 100 100 100 100 100 100 100 100 100 100 100 100
100 100 100 100 100 99 98 100 97 27 36 39 49 53 64 7 26 0 4 22 32 43 23 31 49 61 98 92 100 99 86 83 92 100 100 100 100 100 100 100 100 100 100
100 100 100 100 100 100 80 89 69 100 82 74 52 60 98 90 31 18 5 66 19 38 98 100 62 38 19 8 33 33 62 52 82 92 100 100 100 100 99 100 100 100 100
100 100 100 100 100 100 100 100 100 100 97 54 97 75 57 60 51 22 13 13 56 15 24 96 5 5 98 49 37 95 5 7 8 6 5 5 8 12 30 58 56 100 100
100 100 100 100 100 100 100 100 100 90 100 100 52 21 98 14 46 99 100 91 91 42 48 48 84 63 57 60 24 71 62 92 100 42 52 100 100 100 86 81 76 85 95
100 100 100 100 100 100 100 100 100 100 100 100 100 82 91 53 93 92 100 98 74 97 100 100 100 100 100 98 71 46 71 98 100 100 100 80 100 65 90 100 98 100 96
100 100 100 100 100 100 100 100 100 100 100 100 100 100 94 99 100 100 100 100 100 100 100 100 100 100 100 98 98 78 74 94 100 86 79 49 65 100 96 95 41 34 72
100 100 100 100 100 100 100 100 100 100 100 100 100 100 100 99 100 100 100 100 100 100 100 100 100 100 100 100 90 100 100 28 99 100 100 98 100 100 94 100 100 92 18
100 100 100 100 100 100 100 100 100 100 100 100 100 100 96 100 100 100 100 88 38 94 99 100 100 100 100 100 100 100 100 100 100 100 100 100 100 100 100 99 99 67 25
100 100 100 100 100 100 100 100 100 100 100 100 100 100 100 100 100 100 100 48 93 96 79 98 100 100 100 100 100 100 100 100 100 99 100 100 100 100 100 100 100 100 100
100 100 100 100 100 100 100 100 100 100 100 100 100 100 100 98 100 92 58 42 39 78 99 99 100 100 100 100 100 100 100 100 100 95 100 100 100 100 100 100 100 100 100
100 100 100 100 100 100 100 100 100 100 100 100 100 100 100 100 100 90 44 87 70 88 100 100 100 100 100 100 100 100 100 100 100 100 100 100 100 100 100 100 100 100 100
100 100 98 100 100 100 100 100 100 100 100 100 100 100 100 99 77 76 71 58 78 100 99 98 89 77 94 92 97 100 100 100 100 100 100 100 100 100 100 100 100 100 100
100 100 100 100 100 100 100 100 100 100 100 100 82 97 100 100 40 8 6 29 29 80 73 100 100 100 100 100 100 100 98 100 100 100 100 100 100 100 100 100 100 100 100
100 100 100 100 100 100 100 100 100 100 100 100 98 84 100 75 100 89 78 95 100 97 100 100 100 100 96 97 100 100 100 100 100 100 100 100 100 100 100 100 100 100 100
100 100 100 100 100 100 100 100 100 100 100 100 100 100 100 100 100 100 100 100 100 100 97 100 66 90 99 100 100 100 100 100 100 100 100 100 99 100 100 100 100 100 100
80 42 71 7 59 100 99 100 100 100 100 100 100 100 100 100 100 100 100 100 100 100 100 92 100 100 100 100 100 100 100 100 86 93 24 64 76 100 100 100 82 99 100